Location: Prairie Dale
(45.6972°N, 104.5033°W)
Time: 17:04:47
(UTC+00:00)

EO-79 - Pass Details

Date: 02 July 2022
Orbit: 588 x 603 km, 98.0° (Epoch: 17 August)

Event Time Altitude Azimuth Distance (km) Brightness Sun altitude
Rises 09:10:03 0° 8° (N) 2,857 ? -15.4°
Reaches altitude 10° 09:12:16 10° 3° (N) 1,952 ? -15.2°
Maximum altitude 09:16:22 50° 288° (WNW) 767 ? -14.8°
Enters shadow 09:18:37 24° 224° (SW) 1,247 ? -14.6°
